Regional Weather Roundup
Issued by NWS Austin/San Antonio, TX

Home | Current Version | Previous Version | Text Only | Print | Product List | Glossary On
Versions: 1 2 3 4 5 6 7 8 9 10 11 12 13 14 15 16 17 18 19 20 21 22 23 24 25 26 27 28 29 30 31 32 33 34 35 36 37 38 39 40 41 42 43 44 45 46 47 48 49 50
000
ASUS44 KEWX 230710
RWREWX
SOUTH TEXAS REGIONAL WEATHER ROUNDUP
NATIONAL WEATHER SERVICE AUSTIN/SAN ANTONIO TX
200 AM CDT THU MAY 23 2019

NOTE: "FAIR" INDICATED FEW OR NO CLOUDS BELOW 12,000 FEET WITH NO
SIGNIFICANT WEATHER AND/OR OBSTRUCTIONS TO VISIBILITY.

* - THESE STATIONS ARE NOT NWS OR FAA STATIONS...AND ARE NOT SUBJECT
    TO NWS AND FAA QUALITY CONTROL.

TXZ171-172-183>190-230800-
TEXAS HILL COUNTRY AND EDWARDS PLATEAU

CITY           SKY/WX    TMP DP  RH WIND       PRES   REMARKS
JUNCTION       CLOUDY    79  71  76 S16G24    29.86S HAZE
*LLANO         CLOUDY    81  72  74 SE10G17   29.90S
BURNET         CLOUDY    79  72  79 S13G20    29.90R
*HORSESHOE BAY CLOUDY    81  72  74 SE9G22    29.88R
*KERRVILLE     CLOUDY    76  71  83 SE16      29.90S
*FREDERICKSBRG CLOUDY    76  68  75 S17G26    29.90S
*ROCKSPRINGS   CLOUDY    75  72  88 SE20G30   29.91F HAZE
*BOERNE STAGE  CLOUDY    77  70  78 S12G25    29.91S
*CASTROVILLE   CLOUDY    80  71  74 SE10      29.88S
HONDO          CLOUDY    79  72  79 SE15      29.86S
*UVALDE        MOCLDY    78  75  90 SE10      29.84S
DEL RIO        CLOUDY    83  75  77 SE14G24   29.75S HX  90
LAUGHLIN AFB   PTCLDY    80  75  84 SE17      29.77S
CARRIZO SPRGS  CLOUDY    81  73  78 SE13G18   29.78S
*FAITH RANCH   MOCLDY    81  73  78 SE12G24   29.77S
$$

TXZ173-191>194-202-209-217>225-228-230800-
CENTRAL AND SOUTH CENTRAL TEXAS

CITY           SKY/WX    TMP DP  RH WIND       PRES   REMARKS
GEORGETOWN     CLOUDY    79  74  84 S14G22    29.91R
AUSTIN/BERGSTM MOCLDY    82  74  76 SE16      29.88R
AUSTIN/MABRY   CLOUDY    80  73  79 S9G21     29.89S
*AUSTIN/EXEC   CLOUDY    79  73  83 S10G20    29.90R
*LAGO VISTA    CLOUDY    77  73  86 S9G18     29.91R
SAN MARCOS     CLOUDY    79  75  87 S15       29.90R
NEW BRAUNFELS  CLOUDY    79  73  82 S14       29.88R
RANDOLPH AFB   CLOUDY    79  75  89 SE12      29.88S
PT SAN ANTONIO MOCLDY    80  72  75 SE20      29.86S
SAN ANTONIO    CLOUDY    80  72  76 S18       29.88S
STINSON FIELD  CLOUDY    82  71  69 SE17G26   29.85S
*LA GRANGE     CLOUDY    79  77  94 S5        29.89R
*GIDDINGS      MOCLDY    81  75  83 S8        29.92R
*GONZALES      MOCLDY    79  74  85 S12       29.89S
$$

TXZ163>164-176>182-195>201-210>213-226-227-235-230800-
SOUTHEAST TEXAS

CITY           SKY/WX    TMP DP  RH WIND       PRES   REMARKS
COLLEGE STN    CLOUDY    79  74  84 SE16      29.91S
*BRYAN         CLOUDY    78  74  90 SE10G20   29.92F
*CALDWELL      CLOUDY    77  73  86 S10       29.92R
*CROCKETT        N/A     77  73  88 SE9       29.97R
*BRENHAM       CLOUDY    80  74  83 S10       29.92S
HUNTSVILLE     CLEAR     80  72  76 VRB5      29.93S
CONROE         CLOUDY    79  73  82 SE15      29.94S
HOUSTON BUSH   CLOUDY    81  75  82 S21       29.94R
HOUSTON HOBBY  MOCLDY    81  73  76 S15G24    29.94R
*HOUSTON SW AP CLOUDY    79  75  87 S12G20    29.95R
PEARLAND       CLOUDY    80  74  81 SE14G26   29.95S
HOUSTON HOOKS  CLOUDY    80  72  76 S9G22     29.93S
ELLINGTON FLD  MOCLDY    81  73  78 SE15      29.90S
SUGAR LAND     CLOUDY    80  75  84 S15G25    29.93R
*HOUSTON EXEC  CLOUDY    81  75  83 S13G18    29.93S
*CLEVELAND MUN CLOUDY    79  75  86 S9G16     29.96S
*WHARTON       CLOUDY    79  72  79 SE13      29.92F
*COLUMBUS      CLOUDY    78  73  82 SE10G16   29.91F
*EAGLE LAKE    CLOUDY    78  74  86 S12G17    29.91
$$

TXZ214>216-236>238-230800-
THE UPPER TEXAS COAST

CITY           SKY/WX    TMP DP  RH WIND       PRES   REMARKS
*ORANGE        CLOUDY    79  77  92 S10G18    30.00S
PORT ARTHUR    MOCLDY    80  73  79 SE14G24   29.97R
GALVESTON      CLOUDY    79  75  87 SE25G32   29.95S
ANGLETON       CLOUDY    79  74  84 SE20G29   29.93S
*BAY CITY      CLOUDY    80  75  85 SE16G26   29.91S
PALACIOS       CLOUDY    82  77  84 SE23G33   29.89F HX  90
$$

TXZ229>234-239>247-230800-
TEXAS COASTAL BEND AND RIO GRANDE PLAINS

CITY           SKY/WX    TMP DP  RH WIND       PRES   REMARKS
VICTORIA       CLOUDY    80  74  81 SE21      29.88F
*BEEVILLE      CLOUDY    82  74  76 SE14G20   29.87S
ROCKPORT       MOCLDY    80  75  84 SE18G31   29.85F
*PORT ARANSAS  CLOUDY    81  76  86 SE22      29.88S
*PORT LAVACA   CLOUDY    82  76  83 SE18G24   29.89S
*INGLESIDE     CLOUDY    82  76  83 S21       29.86S
CORPUS CHRISTI MOCLDY    82  75  79 SE17G26   29.86S
CORPUS NAS     CLOUDY    85  76  74 SE21G28   29.86S HX  94
*ROBSTOWN      PTCLDY    80  75  83 SE16      29.86S
ALICE          CLOUDY    82  76  81 SE16      29.84S
KINGSVILLE NAS CLOUDY    82  76  81 SE18G28   29.84S
COTULLA        CLOUDY    82  75  79 SE17      29.81S
LAREDO         PTCLDY    82  74  76 SE21G26   29.77F
$$

TXZ248>255-230800-
DEEP SOUTH TEXAS

CITY           SKY/WX    TMP DP  RH WIND       PRES   REMARKS
BROWNSVILLE    CLOUDY    83  78  85 SE15        N/A  HX  93
PORT ISABEL    CLOUDY    82  75  79 SE17G25   29.84S
HARLINGEN      CLOUDY    82  76  81 SE20      29.83S
*HEBBRONVILLE  CLOUDY    80  71  75 S14G21    29.84S
MCALLEN        CLOUDY    83  75  77 SE16G24   29.82S HX  90
*WESLACO       CLOUDY    81  75  83 SE10G16   29.82
FALFURRIAS     CLOUDY    83  74  75 SE8G16    29.83S HX  90
EDINBURG       CLOUDY    84  75  75 SE17G25   29.83S HX  92
*ZAPATA        CLOUDY    82  73  72 SE14G25   29.80S
$$

TXZ213>215-236>238-242>244-246-247-251-254-255-230800-
CMAN STATIONS

STATION/POSITION TIME  TEMP    WIND        PRES    WAVE
                       AIR SEA DIR/SP/G            HT/PER
                 (UTC) (F)     (DEG/KT/KT) (MB)    (FT/S)
SABINE PASS      0642   80 81  150/ 21/ 26 1016.4
NORTH JETTY/GLS  0642   84 81  160/ 27/ 31 1013.1
EAGLE POINT      0642   80 81  170/ 22/ 25 1013.4
MORGANS POINT    0642   80 81  140/ 10/ 19 1014.2
PORT O`CONNOR    0642   80 83  140/ 24/ 29 1011.5
PORT ARANSAS     0700   81 81  130/ 20/ 23 1010.8
MALAQUITE BEACH  0642   81 82  120/ 25/ 27 1010.2
BAFFIN BAY       0636   81 83  130/ 16/ 21 1011.1
PORT ISABEL      0636   81 82  140/ 16/ 22 1010.9
$$



USA.gov is the U.S. government's official web portal to all federal, state and local government web resources and services.